Flag for U.S.A. Weather past 2 weeks in Alpena, Michigan, U.S.A.

Now
70 °F

Sunny.


Feels Like: 68 °F
Forecast: 68 / 84 °F
Wind: No wind

Location: Alpena County Regional Airport

Current Time: Sep 1, 2015 at 9:25:23 PM

Latest Report: Sep 1, 2015 at 8:54 PM


Visibility: 7 mi

Pressure: 29.98 "Hg

Humidity: 87%

Dew point: 66 °F

Location of AlpenaLocation

Historic Weather in Alpena — Graph

°F

Alpena temperature yesterday

Maximum temperature yesterday: 80 °F (at 1:54 PM)
Minimum temperature yesterday: 59 °F (at 1:54 AM)
Average temperature yesterday: 67 °F

Past Weeks' High & Low Weather Summary

 TemperatureHumidityPressure
High88 °F (Sep 1, 4:54 PM)100% (Aug 30, 5:59 AM)30.22 "Hg (Aug 30, 5:59 AM)
Low47 °F (Aug 28, 2:54 AM)40% (Aug 21, 3:54 PM)29.63 "Hg (Aug 20, 5:54 AM)
Average65 °F79%29.96 "Hg
* Reported Aug 17 7:54 PM — Sep 1 7:54 PM, Alpena, Weather by CustomWeather, © 2015

Note: Actual official high and low records may vary slightly from our data, if they occured in-between our weather recording intervals... More about our weather records

Advertising

Alpena weather history for previous 24 hours

 ConditionsComfort  
Time TempWeatherWind HumidityBarometerVisibility
7:54 PM
Tue, Sep 1
73 °FSunny.3 mph81%29.98 "Hg9 mi
6:54 PM78 °FSunny.3 mph71%29.98 "Hg10 mi
4:54 PM88 °FScattered clouds.7 mph50%29.98 "Hg10 mi
3:54 PM87 °FPassing clouds.10 mph50%29.99 "Hg10 mi
2:54 PM86 °FSunny.7 mph49%30.00 "Hg10 mi
1:54 PM85 °FPartly sunny.12 mph57%30.01 "Hg10 mi
12:54 PM82 °FScattered clouds.5 mph63%30.02 "Hg10 mi
11:54 AM80 °FSunny.9 mph67%30.03 "Hg10 mi
10:54 AM76 °FSunny.6 mph77%30.04 "Hg10 mi
9:54 AM71 °FSunny.5 mph87%30.05 "Hg8 mi
8:54 AM67 °FFog.3 mph90%30.05 "Hg6 mi
7:54 AM62 °FFog.No wind96%30.05 "Hg4 mi
6:54 AM62 °FClear.No wind93%30.03 "Hg7 mi
5:54 AM62 °FFog.5 mph93%30.03 "Hg5 mi
4:54 AM58 °FClear.No wind93%30.03 "Hg8 mi
3:54 AM58 °FClear.No wind90%30.02 "Hg10 mi
2:54 AM59 °FClear.No wind90%30.02 "Hg9 mi
1:50 AM60 °FFog.No wind93%30.02 "Hg3 mi
1:04 AM60 °FFog.No wind96%30.02 "Hg3 mi
1:00 AM60 °FFog.No wind96%30.02 "Hg1 mi
10:54 PM
Mon, Aug 31
62 °FFog.No wind96%30.03 "Hg0 mi
9:54 PM64 °FFog.No wind94%30.02 "Hg5 mi
Weather by CustomWeather, © 2015

See weather overviewHow to use our weather pages